Bradford, PA

5:02 AM EDT on October 22, 2019 (GMT -0400)
Bradford Regional

Weather History for KBFD - September, 2019

Change the Weather History Date:

Saturday, September 21, 2019

  Actual Average Record
Temperature  
Mean Temperature 63 °F 55 °F  
Max Temperature 81 °F 66 °F 82 °F (1980)
Min Temperature 44 °F 43 °F 28 °F (1962)
Degree Days  
Heating Degree Days 2 6  
Month to date heating degree days 90 75  
Since 1 July heating degree days 163 228  
Cooling Degree Days 0 0  
Month to date cooling degree days 12 13  
Year to date cooling degree days 265 190  
Growing Degree Days 12 (Base 50)    
Moisture  
Dew Point 54 °F    
Average Humidity 69    
Maximum Humidity 93    
Minimum Humidity 45    
Precipitation  
Precipitation 0.00 in 0.13 in 2.52 in (1992)
Month to date precipitation 2.33 2.74  
Year to date precipitation 34.77 32.69  
Sea Level Pressure  
Sea Level Pressure 30.23 in    
Wind  
Wind Speed 2 mph (SSE)    
Max Wind Speed 10 mph    
Max Gust Speed 14 mph    
Visibility 7 miles    
Events Fog    
T = Trace of Precipitation, MM = Missing Value Source: NWS Daily Summary

Daily Weather History Graph

Daily Weather History Graph

Search for Another Location

Airport or City:

Astronomy

Sep. 21, 2019 Rise Set
Actual Time 7:00 AM EDT 7:13 PM EDT
Civil Twilight 6:32 AM EDT 7:41 PM EDT
Nautical Twilight 6:00 AM EDT 8:14 PM EDT
Astronomical Twilight 5:26 AM EDT 8:47 PM EDT
Moon 11:44 PM EDT (9/21) 2:10 PM EDT (9/21)
Length of Visible Light 13h 08m
Length of Day
12h 13m
Waning Gibbous, 55% of the Moon is Illuminated
Sep 21
Waning Gibbous
Sep 21
Last Quarter
Sep 28
New
Oct 5
First Quarter
Oct 13
Full

Hourly Weather History & Observations

Time (EDT) Temp. Heat Index Dew Point Humidity Pressure Visibility Wind Dir Wind Speed Gust Speed Precip Events Conditions
12:53 AM 50.0 °F - 46.9 °F 89% 30.25 in 8.0 mi Calm Calm - N/A   Clear
1:53 AM 48.9 °F - 46.0 °F 90% 30.24 in 6.0 mi Calm Calm - N/A   Clear
2:06 AM 48.9 °F - 46.0 °F 90% 30.26 in 2.5 mi Calm Calm - N/A   Clear
2:14 AM 48.0 °F - 46.0 °F 93% 30.26 in 10.0 mi Calm Calm - N/A   Clear
2:53 AM 46.9 °F - 44.1 °F 90% 30.24 in 8.0 mi ESE 3.5 mph - N/A   Clear
3:53 AM 48.0 °F - 44.1 °F 86% 30.24 in 8.0 mi Calm Calm - N/A   Clear
4:53 AM 48.0 °F - 44.1 °F 86% 30.24 in 10.0 mi Calm Calm - N/A   Clear
5:53 AM 46.0 °F - 42.1 °F 86% 30.25 in 10.0 mi Calm Calm - N/A   Clear
6:53 AM 45.0 °F - 42.1 °F 90% 30.27 in 10.0 mi Calm Calm - N/A   Clear
7:53 AM 48.9 °F - 46.0 °F 90% 30.28 in 10.0 mi Calm Calm - N/A   Clear
8:53 AM 57.9 °F - 52.0 °F 81% 30.29 in 10.0 mi Calm Calm - N/A   Clear
9:53 AM 68.0 °F - 55.9 °F 65% 30.27 in 10.0 mi ESE 3.5 mph - N/A   Clear
10:53 AM 73.0 °F - 54.0 °F 51% 30.27 in 10.0 mi Variable 3.5 mph - N/A   Clear
11:53 AM 75.9 °F - 55.9 °F 50% 30.25 in 10.0 mi Variable 3.5 mph - N/A   Clear
12:53 PM 78.1 °F - 57.0 °F 48% 30.24 in 10.0 mi WNW 5.8 mph - N/A   Clear
1:53 PM 79.0 °F - 57.0 °F 47% 30.22 in 10.0 mi West 6.9 mph - N/A   Mostly Cloudy
2:53 PM 78.1 °F - 57.0 °F 48% 30.21 in 10.0 mi West 6.9 mph - N/A   Mostly Cloudy
3:53 PM 77.0 °F - 57.9 °F 52% 30.20 in 10.0 mi Variable 3.5 mph - N/A   Partly Cloudy
4:53 PM 80.1 °F 80.6 °F 57.9 °F 47% 30.19 in 10.0 mi Variable 5.8 mph - N/A   Partly Cloudy
5:53 PM 79.0 °F - 60.1 °F 52% 30.19 in 10.0 mi WSW 3.5 mph - N/A   Mostly Cloudy
6:53 PM 73.0 °F - 62.1 °F 68% 30.21 in 10.0 mi Calm Calm - N/A   Clear
7:53 PM 66.9 °F - 61.0 °F 81% 30.20 in 10.0 mi Calm Calm - N/A   Clear
8:53 PM 64.9 °F - 60.1 °F 84% 30.20 in 8.0 mi Calm Calm - N/A   Mostly Cloudy
9:53 PM 63.0 °F - 60.1 °F 90% 30.21 in 4.0 mi ESE 3.5 mph - N/A   Scattered Clouds
10:53 PM 63.0 °F - 60.1 °F 90% 30.19 in 4.0 mi Calm Calm - N/A   Clear
11:10 PM 61.0 °F - 59.0 °F 93% 30.23 in 1.8 mi Calm Calm - N/A   Clear
11:19 PM 61.0 °F - 57.9 °F 90% 30.23 in 0.5 mi Calm Calm - N/A Fog Fog
11:28 PM 60.1 °F - 57.9 °F 93% 30.23 in 0.2 mi ESE 3.5 mph - N/A Fog Fog
11:44 PM 60.1 °F - 57.9 °F 93% 30.23 in 0.8 mi SE 3.5 mph - N/A   Mist
11:48 PM 60.8 °F - 57.2 °F 88% 30.23 in 1.2 mi Calm Calm - N/A   Scattered Clouds
11:53 PM 60.1 °F - 57.9 °F 93% 30.19 in 2.0 mi Calm Calm - N/A   Partly Cloudy